Weather History for KHNB - December, 2012

Change the Weather History Date:

Wednesday, December 19, 2012

  Actual Average Record
Temperature  
Mean Temperature 42 °F -  
Max Temperature 53 °F 38 °F 64 °F (2008)
Min Temperature 32 °F 24 °F 6 °F (2000)
Degree Days  
Heating Degree Days 24    
Moisture  
Dew Point 34 °F    
Average Humidity 70    
Maximum Humidity 87    
Minimum Humidity 54    
Precipitation  
Precipitation 0.00 in - - ()
Sea Level Pressure  
Sea Level Pressure 29.97 in    
Wind  
Wind Speed 7 mph (East)    
Max Wind Speed 17 mph    
Max Gust Speed 21 mph    
Averages and records for this station are not official NWS values.
T = Trace of Precipitation, MM = Missing Value Source: NWS Daily Summary

Daily Weather History Graph

Daily Weather History Graph

Search for Another Location

Airport or City:

Trip Planner

Search our weather history database for the weather conditions in past years. The results will help you decide how hot, cold, wet, or windy it might be!

Date:

Astronomy

Dec. 19, 2012 Rise Set
Actual Time 8:00 AM EST 5:30 PM EST
Civil Twilight 7:30 AM EST 5:59 PM EST
Nautical Twilight 6:57 AM EST 6:33 PM EST
Astronomical Twilight 6:25 AM EST 7:05 PM EST
Moon 12:14 PM EST (12/19) No Moon Set
Length of Visible Light 10h 29m
Length of Day
9h 30m
Waxing Crescent, 45% of the Moon is Illuminated
Dec 19
Waxing Crescent
Dec 20
First Quarter
Dec 28
Full
Jan 4
Last Quarter
Jan 11
New

Hourly Weather History & Observations

Time (EST) Temp. Windchill Dew Point Humidity Pressure Visibility Wind Dir Wind Speed Gust Speed Precip Events Conditions
12:15 AM 42.8 °F 38.6 °F 35.6 °F 76% 29.88 in - SSW 6.9 mph - N/A   Clear
12:35 AM 42.8 °F 38.6 °F 35.6 °F 76% 29.89 in - SSW 6.9 mph - N/A   Clear
12:55 AM 42.8 °F 41.1 °F 35.6 °F 76% 29.90 in - SW 3.5 mph - N/A   Clear
1:15 AM 42.8 °F - 35.6 °F 76% 29.90 in - Calm Calm - N/A   Clear
1:35 AM 42.8 °F 40.1 °F 35.6 °F 76% 29.91 in - WSW 4.6 mph - N/A   Clear
1:55 AM 41.0 °F 37.1 °F 33.8 °F 76% 29.91 in - West 5.8 mph - N/A   Clear
2:15 AM 37.4 °F 32.1 °F 32.0 °F 81% 29.92 in - WNW 6.9 mph - N/A   Clear
2:35 AM 39.2 °F 35.0 °F 33.8 °F 81% 29.93 in - NNW 5.8 mph - N/A   Clear
2:55 AM 41.0 °F 34.7 °F 35.6 °F 81% 29.95 in - North 10.4 mph - N/A   Clear
3:15 AM 39.2 °F 33.6 °F 32.0 °F 75% 29.97 in - NNW 8.1 mph - N/A   Clear
3:35 AM 37.4 °F 32.1 °F 32.0 °F 81% 29.97 in - North 6.9 mph - N/A   Clear
3:55 AM 37.4 °F 30.8 °F 30.2 °F 75% 29.98 in - NNW 9.2 mph - N/A   Clear
4:15 AM 37.4 °F 32.1 °F 30.2 °F 75% 29.98 in - North 6.9 mph - N/A   Clear
4:35 AM 35.6 °F 30.7 °F 30.2 °F 81% 29.98 in - North 5.8 mph - N/A   Clear
4:55 AM 35.6 °F 31.7 °F 28.4 °F 75% 29.98 in - North 4.6 mph - N/A   Clear
5:15 AM 35.6 °F 32.8 °F 28.4 °F 75% 29.98 in - NNE 3.5 mph - N/A   Clear
5:35 AM 35.6 °F - 28.4 °F 75% 29.98 in - Calm Calm - N/A   Clear
5:55 AM 35.6 °F - 28.4 °F 75% 29.99 in - Calm Calm - N/A   Clear
6:15 AM 33.8 °F - 28.4 °F 81% 30.00 in - Calm Calm - N/A   Clear
6:35 AM 32.0 °F - 26.6 °F 80% 30.00 in - Calm Calm - N/A   Clear
6:55 AM 33.8 °F 29.6 °F 28.4 °F 81% 30.02 in - NNE 4.6 mph - N/A   Clear
7:15 AM 33.8 °F 29.6 °F 28.4 °F 81% 30.02 in - NNE 4.6 mph - N/A   Clear
7:35 AM 33.8 °F 30.8 °F 28.4 °F 81% 30.02 in - ENE 3.5 mph - N/A   Clear
7:55 AM 33.8 °F - 28.4 °F 81% 30.03 in - Calm Calm - N/A   Clear
8:15 AM 33.8 °F 30.8 °F 28.4 °F 81% 30.03 in - East 3.5 mph - N/A   Clear
8:35 AM 32.0 °F 26.4 °F 28.4 °F 87% 30.02 in - ENE 5.8 mph - N/A   Unknown
8:55 AM 35.6 °F 32.8 °F 30.2 °F 81% 30.03 in - East 3.5 mph - N/A   Clear
9:15 AM 35.6 °F 31.7 °F 30.2 °F 81% 30.04 in - East 4.6 mph - N/A   Clear
9:35 AM 35.6 °F - 30.2 °F 81% 30.05 in - Calm Calm - N/A   Clear
9:55 AM 37.4 °F 33.8 °F 30.2 °F 75% 30.07 in - South 4.6 mph - N/A   Clear
10:15 AM 37.4 °F 34.9 °F 32.0 °F 81% 30.07 in - ESE 3.5 mph - N/A   Clear
10:35 AM 39.2 °F 33.0 °F 32.0 °F 75% 30.06 in - East 9.2 mph - N/A   Clear
10:55 AM 39.2 °F 33.0 °F 33.8 °F 81% 30.06 in - East 9.2 mph - N/A   Clear
11:15 AM 39.2 °F 33.6 °F 33.8 °F 81% 30.07 in - East 8.1 mph - N/A   Clear
11:35 AM 42.8 °F 38.6 °F 33.8 °F 70% 30.05 in - ESE 6.9 mph - N/A   Clear
11:55 AM 42.8 °F 37.5 °F 33.8 °F 70% 30.04 in - East 9.2 mph - N/A   Clear
12:15 PM 44.6 °F 38.8 °F 33.8 °F 66% 30.02 in - East 11.5 mph - N/A   Clear
12:35 PM 46.4 °F 41.1 °F 35.6 °F 66% 30.03 in - ESE 11.5 mph - N/A   Clear
12:55 PM 46.4 °F 41.9 °F 35.6 °F 66% 30.02 in - East 9.2 mph - N/A   Clear
1:15 PM 48.2 °F - 33.8 °F 58% 30.02 in - SE 6.9 mph - N/A   Clear
1:35 PM 48.2 °F - 35.6 °F 62% 30.01 in - ESE 8.1 mph - N/A   Clear
1:55 PM 50.0 °F - 35.6 °F 58% 30.01 in - East 6.9 mph - N/A   Clear
2:15 PM 51.8 °F - 35.6 °F 54% 30.00 in - ESE 8.1 mph - N/A   Clear
2:35 PM 50.0 °F - 33.8 °F 54% 29.99 in - East 6.9 mph - N/A   Clear
2:55 PM 50.0 °F - 33.8 °F 54% 29.99 in - East 9.2 mph - N/A   Clear
3:15 PM 51.8 °F - 35.6 °F 54% 29.98 in - ESE 9.2 mph - N/A   Clear
3:35 PM 51.8 °F - 35.6 °F 54% 29.97 in - East 10.4 mph - N/A   Clear
4:15 PM 50.0 °F - 35.6 °F 58% 29.97 in - East 11.5 mph - N/A   Partly Cloudy
4:35 PM 50.0 °F - 35.6 °F 58% 29.97 in - East 9.2 mph - N/A   Clear
4:55 PM 50.0 °F - 35.6 °F 58% 29.97 in - East 8.1 mph - N/A   Mostly Cloudy
5:15 PM 50.0 °F - 35.6 °F 58% 29.97 in - East 9.2 mph - N/A   Overcast
5:35 PM 50.0 °F - 35.6 °F 58% 29.96 in - East 11.5 mph - N/A   Mostly Cloudy
5:55 PM 48.2 °F - 35.6 °F 62% 29.95 in - East 13.8 mph - N/A   Mostly Cloudy
6:15 PM 48.2 °F - 35.6 °F 62% 29.96 in - East 12.7 mph - N/A   Mostly Cloudy
6:35 PM 48.2 °F - 35.6 °F 62% 29.96 in - East 9.2 mph - N/A   Overcast
6:55 PM 48.2 °F - 35.6 °F 62% 29.97 in - ESE 6.9 mph - N/A   Mostly Cloudy
7:15 PM 48.2 °F - 35.6 °F 62% 29.95 in - ESE 9.2 mph - N/A   Mostly Cloudy
7:35 PM 48.2 °F - 35.6 °F 62% 29.94 in - ESE 12.7 mph - N/A   Mostly Cloudy
7:55 PM 48.2 °F - 37.4 °F 66% 29.92 in - ESE 13.8 mph 20.7 mph N/A   Mostly Cloudy
8:15 PM 48.2 °F - 37.4 °F 66% 29.93 in - ESE 13.8 mph - N/A   Mostly Cloudy
8:35 PM 48.2 °F - 37.4 °F 66% 29.92 in - ESE 17.3 mph - N/A   Overcast
8:55 PM 48.2 °F - 37.4 °F 66% 29.91 in - ESE 17.3 mph - N/A   Mostly Cloudy
9:15 PM 50.0 °F - 37.4 °F 62% 29.91 in - ESE 13.8 mph - N/A   Mostly Cloudy
9:35 PM 50.0 °F - 39.2 °F 66% 29.90 in - SE 12.7 mph - N/A   Overcast
9:55 PM 50.0 °F - 39.2 °F 66% 29.88 in - SE 13.8 mph - N/A   Overcast
10:15 PM 51.8 °F - 39.2 °F 62% 29.88 in - SE 12.7 mph - N/A   Mostly Cloudy
10:35 PM 51.8 °F - 39.2 °F 62% 29.88 in - SE 12.7 mph - N/A   Mostly Cloudy
10:55 PM 51.8 °F - 39.2 °F 62% 29.86 in - SE 13.8 mph - N/A   Scattered Clouds
11:15 PM 51.8 °F - 39.2 °F 62% 29.85 in - SE 11.5 mph - N/A   Mostly Cloudy
11:35 PM 51.8 °F - 41.0 °F 67% 29.83 in - SE 13.8 mph - N/A   Scattered Clouds
11:55 PM 51.8 °F - 41.0 °F 67% 29.82 in - SE 13.8 mph - N/A   Partly Cloudy